RH
40 40 40 40 42 42 42 42 41 40 39 37 36 35 33 33 34 33 32 30 27 25 23 22 21 20 20 20 19 19 18 17 17 17 17 17 17 16 15 14 14 14 14 14 15 15 15 16 16 16 16 17 17 18 18 18 18 18 18 18 18 18 18 19 19 19 20 21 21 23 24 25 25 24
52 53 54 54 53 52 52 51 50 47 44 40 38 36 33 32 32 31 31 30 28 27 26 24 22 20 19 18 18 18 18 18 18 18 18 18 17 16 15 15 14 15 15 16 16 17 17 18 18 18 19 20 20 21 21 21 21 20 21 20 20 20 20 20 21 21 22 24 26 28 29 29 26 21
68 68 68 66 63 61 59 59 57 55 53 50 46 42 38 34 32 32 32 31 30 29 30 29 26 25 23 22 20 20 19 19 19 19 19 18 17 16 15 15 16 16 17 17 18 18 19 20 20 21 21 22 23 24 25 24 24 24 23 23 23 23 23 23 24 26 27 30 32 33 33 30 23 16
76 75 75 73 70 67 65 64 63 63 64 64 63 59 54 48 43 39 37 36 35 34 35 34 32 32 29 27 25 24 23 22 21 20 20 18 17 17 17 17 17 18 19 19 20 21 23 24 25 26 25 26 27 28 29 29 29 28 27 27 27 27 27 27 29 31 33 35 36 36 34 28 20 15
77 77 78 77 74 71 69 67 65 64 65 69 73 72 68 64 60 56 51 48 46 45 43 41 39 37 34 31 29 27 26 24 23 21 20 19 18 18 18 18 19 20 21 22 22 23 25 27 29 31 31 31 31 31 32 33 33 32 32 32 32 32 33 33 34 35 37 37 36 36 33 28 21 15
77 78 79 78 77 75 72 68 66 64 63 65 69 71 71 69 66 64 61 57 55 53 50 47 45 42 38 35 33 31 29 27 25 23 21 20 19 19 20 20 20 21 21 23 24 25 26 28 31 34 36 37 36 36 37 36 36 36 35 36 37 38 39 39 40 40 38 38 37 35 33 28 22 17
79 80 79 78 77 76 74 72 69 65 61 60 61 64 68 70 69 65 62 60 57 54 52 50 47 44 41 39 36 34 32 29 27 24 22 21 21 20 21 21 21 23 24 25 26 27 28 31 34 37 39 41 41 41 41 41 40 40 39 39 40 41 43 43 43 42 40 39 38 37 34 31 26 20
82 80 77 75 75 75 75 73 69 63 58 54 52 51 54 61 66 65 63 61 59 57 55 53 49 47 44 41 39 37 34 31 28 26 24 23 22 22 22 22 23 24 25 26 28 29 31 35 39 42 43 44 44 44 45 46 46 46 46 46 46 45 45 45 44 43 42 41 41 40 37 32 27 23
79 72 71 72 75 76 75 72 66 60 54 49 45 40 38 44 53 58 61 63 63 60 58 55 52 48 45 43 41 39 35 32 30 29 27 25 24 24 23 24 25 26 28 30 31 32 34 36 39 43 45 46 47 48 50 51 52 54 55 55 55 53 52 51 49 47 46 45 43 40 36 32 29 25
72 63 64 67 70 73 72 68 62 55 49 42 38 35 32 36 44 53 59 62 62 60 59 57 53 49 46 44 42 40 37 34 32 30 29 27 27 27 27 28 30 31 33 35 36 36 37 39 41 43 44 45 46 48 50 53 56 60 62 63 62 61 59 56 54 51 49 46 42 39 36 32 28 26
66 64 68 70 72 74 73 69 63 56 48 40 36 37 37 38 42 47 51 53 55 55 55 55 54 51 49 45 43 43 41 39 36 33 32 32 33 35 37 39 41 43 45 46 48 48 48 47 47 46 45 45 46 47 49 52 56 60 62 61 60 59 57 54 51 49 46 44 41 39 37 33 31 30
71 77 82 81 80 78 75 71 66 59 50 41 38 40 43 47 48 48 47 47 48 49 51 52 52 52 53 49 47 48 45 41 39 37 36 37 38 41 44 48 53 57 60 60 60 61 61 60 58 55 54 53 53 53 53 54 56 57 56 55 54 53 52 50 49 48 46 45 44 41 39 37 34 32
81 88 88 84 79 75 72 70 69 66 57 46 39 37 38 42 49 53 53 49 43 40 44 49 51 55 58 56 52 49 46 44 43 40 38 37 39 41 46 53 57 60 62 64 67 70 69 68 68 66 64 63 61 59 60 59 59 58 55 55 54 53 54 54 53 53 52 49 47 46 45 44 42 41
87 90 88 83 79 76 76 75 75 74 67 55 44 37 34 36 42 48 52 51 47 43 42 45 51 59 63 62 58 53 50 49 48 48 49 49 48 48 51 55 56 57 60 64 69 76 76 74 76 75 71 69 66 64 64 63 61 61 60 61 63 64 65 64 61 60 61 59 57 57 56 57 57 56
89 90 86 81 79 79 80 79 77 75 70 62 52 47 50 52 48 44 42 43 49 53 51 46 46 54 62 61 59 61 62 60 58 59 61 61 56 53 54 58 62 66 66 64 68 79 84 79 78 81 78 75 75 74 74 74 73 74 75 76 80 81 77 72 68 69 73 72 71 72 71 72 74 73
82 83 81 79 80 84 86 82 78 73 69 64 57 58 68 72 70 68 63 58 61 65 63 58 53 56 64 62 54 55 60 63 64 64 64 64 62 60 60 64 72 77 73 68 70 81 90 85 78 81 83 82 84 84 82 81 81 84 87 85 81 79 78 79 78 78 79 78 81 87 88 86 86 86
75 79 79 77 80 88 89 83 77 75 73 67 60 62 72 78 82 90 92 89 89 87 83 80 75 71 76 77 69 63 62 64 65 62 61 63 63 64 67 73 82 87 84 79 75 79 91 91 81 80 85 87 89 86 82 83 83 84 86 80 72 74 83 89 88 83 83 83 86 92 97 96 95 97
87 86 81 76 78 83 83 79 78 79 79 75 67 66 77 84 86 90 95 97 99 99 94 93 91 86 87 89 83 76 72 73 74 69 64 62 58 58 65 73 85 92 92 91 83 78 90 97 90 89 94 94 92 92 91 92 89 85 82 78 78 86 94 98 97 93 92 93 89 88 92 97 100 102
96 92 86 83 85 86 84 84 85 87 88 84 75 73 84 95 94 91 92 93 93 95 95 95 97 97 96 95 87 74 67 70 78 79 74 70 66 62 60 63 69 74 79 86 84 77 85 95 93 95 101 98 94 97 98 97 95 92 87 85 90 94 93 94 96 94 95 99 97 93 92 95 100 102
95 93 89 87 91 94 92 91 92 95 98 96 87 79 80 86 87 84 78 74 73 77 81 89 98 100 99 101 95 79 66 66 74 78 78 80 82 77 73 74 73 71 75 85 86 79 80 87 91 95 99 97 95 98 98 98 99 98 93 92 93 90 87 89 91 91 94 99 100 99 98 97 99 100
99 96 89 86 92 97 95 93 95 97 99 100 99 92 82 74 72 71 68 68 71 74 80 90 98 100 100 101 94 79 71 72 76 82 88 94 93 84 81 85 85 82 84 88 90 86 85 89 95 97 94 93 95 99 100 99 98 97 96 98 97 91 88 91 93 94 98 100 99 100 100 100 100 101
101 100 96 94 98 100 97 96 97 99 100 101 102 100 90 78 72 69 70 75 81 87 93 98 101 101 100 94 83 77 80 84 84 84 89 97 98 89 83 86 88 89 93 94 94 95 92 91 94 96 93 93 96 99 101 101 100 99 99 100 100 98 98 99 100 101 101 100 100 101 101 101 101 101
99 99 99 98 99 100 100 100 101 101 101 98 93 89 84 80 77 74 71 74 83 92 97 99 99 94 86 76 70 73 81 87 88 84 82 87 93 93 93 95 96 95 96 95 95 96 95 93 94 95 94 94 95 96 99 100 100 101 100 99 100 101 101 100 101 102 100 100 100 100 100 101 101 101
94 93 92 90 89 90 92 92 91 90 88 84 79 75 72 70 69 68 66 70 78 82 83 84 83 78 73 72 73 78 83 87 89 88 85 84 86 87 90 94 95 93 93 94 95 95 94 93 94 94 94 94 93 93 96 99 101 100 99 99 99 100 101 101 101 101 100 100 101 101 101 101 100 99
86 85 82 79 77 76 75 74 74 72 71 67 63 62 63 66 71 76 79 82 85 86 86 88 89 88 88 89 89 90 95 97 97 96 97 95 92 89 87 86 86 88 92 96 99 99 97 95 95 97 97 96 96 97 99 101 101 99 99 101 101 101 101 100 100 100 100 100 101 101 101 101 101 101
79 78 76 73 72 70 68 66 63 60 58 58 60 65 73 80 87 92 95 96 95 95 94 93 92 90 88 87 86 86 89 92 93 93 94 93 92 90 89 89 90 92 95 98 100 101 102 101 101 102 101 101 101 102 101 100 99 99 100 100 100 100 100 100 100 101 101 101 102 100 98 98 99 99
85 83 78 69 62 58 56 56 58 60 65 70 76 81 86 89 90 90 90 88 85 82 77 73 70 66 61 59 58 57 58 61 65 68 69 70 71 70 71 74 75 76 77 79 81 83 84 84 83 83 84 85 87 90 95 100 101 102 102 102 102 102 102 101 101 100 100 100 99 98 98 99 100 102
73 70 65 60 58 60 64 69 74 78 81 82 83 82 81 78 76 73 69 64 60 56 52 49 45 42 38 36 34 34 35 37 39 40 42 42 42 41 42 43 44 44 44 45 46 46 47 46 46 46 46 48 49 52 58 64 69 75 81 85 88 90 93 95 98 101 102 103 102 101 100 98 97 94
68 69 73 78 83 87 89 89 88 87 84 81 78 73 68 62 57 52 47 43 40 38 36 33 31 30 28 26 25 24 23 22 21 20 20 20 20 20 20 19 20 20 20 20 20 20 19 19 19 19 20 20 20 20 21 22 25 29 33 35 38 41 43 46 53 62 69 72 71 68 62 57 53 47
89 92 96 99 102 102 100 96 91 83 76 69 61 55 49 45 41 38 36 34 32 30 29 27 26 23 21 19 17 16 14 12 12 11 10 10 10 9 9 9 9 10 9 10 10 10 10 10 10 10 10 10 10 11 10 11 11 11 11 13 13 13 12 13 16 21 24 25 24 23 22 21 19 16
102 102 103 102 99 95 90 81 72 62 55 49 45 42 39 37 35 33 32 30 28 26 24 21 19 16 14 13 11 10 9 8 8 7 7 7 7 7 8 8 8 9 9 9 10 10 10 10 10 10 10 10 11 10 10 11 11 11 11 10 9 9 11 11 11 11 12 15 16 16 16 16 14 14
99 96 92 86 78 71 63 57 52 49 46 44 42 39 37 35 33 31 28 25 21 18 16 14 13 12 10 9 8 7 7 7 7 8 8 8 8 9 9 9 9 9 9 9 9 9 9 9 10 10 10 11 11 12 12 12 11 11 12 12 13 13 10 8 15 23 24 21 19 15 13 13 13 15
83 77 71 65 61 58 55 53 50 48 45 42 39 36 33 31 27 23 20 17 14 12 11 10 10 10 9 8 7 7 7 7 8 8 8 9 9 9 9 9 9 9 9 9 8 8 9 9 10 10 10 11 12 12 13 13 14 16 15 13 13 12 13 21 32 32 23 18 20 23 27 32 36 42
70 67 65 63 61 58 55 51 47 43 39 35 31 27 24 21 17 15 13 11 10 9 9 9 9 8 8 7 7 7 8 8 8 9 9 9 9 8 8 8 8 7 8 8 7 8 8 9 9 10 12 12 12 14 15 15 16 16 17 20 27 35 42 43 34 26 32 44 52 57 64 73 78 80
70 68 65 60 55 49 44 39 34 30 26 23 20 18 16 14 13 11 10 9 9 8 8 8 8 8 8 8 8 9 9 9 9 8 8 8 7 7 7 7 7 8 7 7 8 9 9 10 11 11 11 12 13 14 13 15 24 30 30 36 50 60 60 51 45 53 69 74 70 76 91 97 91 84
62 56 50 44 38 33 29 25 22 19 18 17 16 15 14 12 11 10 9 9 9 8 8 8 8 8 9 9 9 8 8 8 8 7 7 7 7 7 7 6 7 7 7 8 10 9 10 12 12 14 18 21 22 19 17 26 50 65 57 49 57 68 71 72 80 89 88 79 78 89 97 92 81 74
39 34 30 26 24 23 21 19 18 17 16 14 13 12 11 10 10 10 9 9 8 8 8 9 8 9 9 8 8 8 7 7 7 6 7 6 6 6 6 7 8 9 10 11 11 12 16 18 19 25 32 30 27 30 36 45 60 70 66 63 74 89 95 97 99 100 94 88 89 89 84 79 77 76
26 23 21 20 19 19 18 17 15 14 13 12 12 11 11 10 10 9 9 9 9 9 9 9 9 9 8 7 7 7 6 6 7 7 7 6 6 7 8 10 11 12 13 15 19 24 31 33 33 34 34 33 45 69 85 86 83 81 79 82 91 99 102 101 101 99 92 83 77 75 75 76 76 76
22 21 20 19 18 16 15 14 13 13 13 12 12 11 11 10 10 10 10 10 10 9 9 8 8 8 7 7 7 6 6 7 7 6 7 7 9 11 13 13 15 19 26 35 45 53 59 61 62 61 54 53 70 92 101 99 94 91 89 90 95 100 101 98 95 91 85 80 81 82 78 73 71 72
21 20 18 16 15 14 14 14 14 13 13 12 11 11 11 11 10 10 10 10 10 9 8 8 7 7 7 7 7 7 7 7 7 8 10 12 14 16 16 19 29 41 50 57 66 72 73 74 80 86 85 81 83 86 86 87 90 90 90 91 91 91 91 89 88 88 89 93 95 90 80 75 73 70
16 15 15 15 15 14 14 14 13 13 12 12 12 11 11 11 11 11 10 10 9 8 8 7 7 7 8 8 8 8 8 9 11 13 16 17 19 20 20 28 46 63 66 62 62 66 68 69 75 84 90 92 91 89 89 91 93 93 94 92 86 83 86 90 91 91 93 96 97 91 84 77 70 62
15 15 14 14 14 14 14 14 13 13 12 12 12 12 12 12 11 10 9 9 8 8 8 8 8 8 8 8 9 9 11 13 17 19 20 21 23 27 29 34 46 59 63 60 60 63 67 69 70 70 72 77 82 86 88 90 92 94 97 97 93 91 94 97 95 93 93 95 95 91 84 75 65 58
14 14 14 14 14 14 14 13 13 13 13 13 13 12 12 11 11 10 9 9 8 8 8 8 8 8 9 10 11 14 17 20 21 21 22 24 28 36 43 46 49 56 65 72 74 76 79 82 81 78 76 78 83 89 94 95 94 94 98 100 101 101 100 100 100 99 99 97 94 88 80 72 64 58
14 14 14 14 14 14 14 14 14 13 13 13 13 13 12 11 10 10 9 8 8 8 8 8 9 10 12 15 18 20 21 21 22 22 27 33 39 45 51 57 62 70 82 91 94 94 97 99 97 92 88 88 92 97 100 101 100 100 100 101 102 102 101 101 102 101 100 97 92 85 78 71 65 61
15 15 15 15 15 15 15 15 14 14 15 15 13 12 11 11 10 10 9 9 8 8 8 10 13 17 20 21 22 22 21 21 23 26 34 43 50 54 58 64 70 79 88 94 94 94 94 93 89 84 80 78 80 84 85 86 88 89 89 91 96 101 103 103 103 101 99 97 92 86 79 73 67 63
Wind_Speed
14 13 12 11 10 10 11 11 11 11 12 13 13 13 14 15 15 15 15 16 18 16 15 15 15 15 15 15 16 16 16 16 16 16 16 17 17 17 17 17 17 17 17 16 15 15 15 15 15 15 15 16 16 16 16 16 16 16 16 16 17 17 17 17 16 16 15 15 14 14 14 14 14 15
12 11 11 11 11 11 11 11 11 12 12 13 13 13 14 15 15 15 16 18 18 16 15 15 15 15 16 16 16 16 16 16 17 17 17 17 18 18 18 18 18 18 17 16 16 15 16 16 16 16 17 17 17 18 18 18 18 18 19 19 19 19 19 19 18 18 17 17 17 16 16 17 18 18
12 11 11 12 12 11 11 11 12 12 12 12 12 13 14 15 15 16 17 19 19 16 16 17 16 16 16 17 17 17 17 17 17 17 18 18 19 19 19 18 18 18 18 17 16 16 17 17 18 18 18 19 19 20 20 20 20 20 21 21 21 21 21 21 20 20 20 20 19 19 19 20 20 20
12 12 12 12 12 12 12 12 12 12 12 12 13 14 15 15 16 17 18 19 19 17 17 17 17 17 17 17 17 17 17 17 18 18 18 19 19 19 19 19 19 19 19 18 17 17 18 18 19 19 20 20 21 21 22 22 22 22 23 23 23 23 23 23 23 23 22 22 22 22 22 22 22 22
14 14 13 13 13 13 13 13 14 14 14 14 14 15 15 15 15 16 17 18 19 19 18 18 18 18 18 18 18 17 18 18 18 18 19 19 19 19 19 19 20 20 20 19 19 19 19 19 20 20 21 22 23 23 24 24 24 24 25 25 25 25 25 25 24 24 24 24 24 24 24 24 25 25
16 16 15 15 15 15 15 15 15 15 15 15 16 16 15 13 14 15 16 17 19 19 18 18 18 18 17 18 18 17 18 18 18 19 19 19 19 19 19 20 20 21 21 21 20 20 20 21 21 22 22 23 24 25 26 26 26 26 26 27 27 27 27 27 27 27 27 27 27 27 27 27 28 28
17 17 17 18 18 18 17 16 16 16 16 17 17 16 14 13 14 15 16 16 17 18 18 18 18 17 17 17 18 17 18 18 18 19 19 20 19 19 20 20 21 22 22 22 21 21 21 22 22 23 24 24 26 27 28 29 29 28 28 29 29 29 29 29 29 29 29 30 30 30 30 31 31 32
18 18 18 19 19 19 17 16 16 16 17 17 17 17 16 15 16 17 16 16 16 17 17 17 17 17 16 17 18 18 18 19 19 19 20 20 20 20 21 22 22 23 23 23 23 22 22 23 23 24 25 26 27 28 29 30 31 31 31 30 30 31 31 31 32 32 32 33 33 33 34 34 35 35
19 18 18 19 18 18 17 17 17 17 17 17 17 18 18 17 17 16 15 15 14 14 14 14 15 16 16 17 18 18 19 19 20 20 21 21 21 21 22 23 23 23 23 24 24 24 24 24 25 26 27 28 29 30 30 31 32 32 32 32 33 33 33 34 34 35 35 36 36 37 37 38 38 38
18 18 19 19 18 18 17 17 16 17 17 17 17 19 19 17 16 15 14 14 13 13 13 13 14 15 17 17 18 18 18 19 21 22 22 22 22 22 23 23 23 23 24 25 25 25 25 26 27 28 29 29 30 31 31 31 32 32 33 34 35 35 35 36 37 37 38 38 39 40 40 41 42 42
18 18 19 19 18 18 17 16 16 16 17 17 17 18 18 18 17 16 15 15 14 14 14 14 15 15 17 18 19 19 19 20 21 22 22 22 23 23 23 23 24 24 25 25 26 26 27 28 28 29 29 30 31 31 31 31 32 34 35 35 36 36 37 38 39 39 40 41 42 42 43 44 44 45
18 18 18 19 19 19 18 17 16 17 17 16 16 16 17 17 17 17 17 17 17 17 16 16 16 16 16 18 19 20 21 22 23 22 22 23 24 24 24 24 25 25 25 26 27 27 28 29 29 29 29 30 31 31 31 32 33 35 36 37 37 38 38 39 41 41 42 43 44 45 45 46 47 48
18 18 19 20 21 21 21 19 18 18 19 19 19 19 18 19 18 18 18 19 20 20 19 18 17 16 16 17 18 19 21 23 24 24 24 25 26 25 24 24 25 27 28 29 29 29 30 30 29 29 29 30 32 32 32 33 35 36 37 38 39 39 40 41 42 44 45 46 46 47 48 49 50 51
20 20 21 22 22 22 22 21 21 20 20 21 22 22 22 22 21 20 19 19 20 20 20 19 18 17 17 17 19 20 21 22 23 24 25 26 27 26 25 25 27 29 31 31 31 31 31 31 31 31 31 32 33 33 34 36 38 39 39 40 41 42 43 44 45 46 47 48 48 49 50 51 52 53
22 22 23 23 23 23 24 24 24 24 23 23 22 22 22 22 22 22 22 22 21 20 20 20 19 18 18 19 21 22 22 22 22 23 24 26 27 28 28 28 29 30 32 32 32 32 32 33 34 34 33 34 35 35 36 39 40 41 42 42 43 45 47 48 48 47 48 49 50 51 52 52 53 54
23 24 24 24 23 23 24 25 26 26 26 25 24 23 22 21 21 21 23 23 22 22 22 22 20 19 18 20 22 23 23 23 23 24 25 26 28 29 29 29 30 31 33 33 32 32 34 35 35 35 36 36 37 38 39 40 42 43 44 44 46 48 49 50 50 49 50 51 52 52 53 53 55 57
23 24 26 25 24 23 25 27 27 27 26 27 26 26 26 24 22 21 20 20 20 20 19 20 21 21 20 21 23 24 25 26 27 27 27 28 29 30 31 31 31 32 33 33 33 33 34 36 37 38 39 39 41 43 43 42 42 44 46 48 49 50 50 50 50 51 54 54 54 54 54 57 59 60
20 23 26 27 27 27 29 30 30 29 28 28 28 29 28 26 24 23 22 21 21 21 21 22 24 25 25 25 26 27 28 30 31 31 31 32 32 32 32 33 33 33 33 34 36 35 35 37 39 39 41 42 43 44 46 45 45 46 47 49 50 50 52 52 51 52 55 57 58 57 56 58 60 60
23 26 28 28 28 28 29 31 32 31 30 30 30 29 28 27 26 27 27 26 26 26 27 29 30 30 30 30 30 31 33 34 35 35 35 36 36 36 36 36 35 36 37 37 39 39 39 40 41 41 43 44 44 45 47 48 48 48 49 50 50 51 54 55 54 54 55 55 57 56 55 56 57 56
29 30 30 28 28 28 29 30 32 32 33 33 32 31 29 28 29 30 31 31 31 31 31 32 33 34 35 33 34 37 38 37 38 39 38 37 37 37 39 38 38 39 40 40 42 43 42 42 43 43 44 45 45 47 48 50 51 51 50 49 52 55 57 58 58 57 56 55 55 55 54 55 56 56
31 32 33 32 30 30 30 30 31 32 34 34 33 31 31 31 32 32 32 32 32 32 32 34 36 37 37 38 40 42 41 40 40 40 39 39 38 38 40 41 42 43 42 43 45 45 44 44 45 46 46 47 47 48 49 50 50 52 52 52 54 58 61 62 62 62 61 60 60 60 59 60 61 63
32 33 34 33 31 30 29 30 31 32 33 32 31 31 31 32 32 32 32 32 32 33 34 36 39 39 40 42 44 44 43 43 43 42 41 41 41 41 41 42 43 44 44 45 46 46 45 45 47 49 49 50 50 51 51 52 53 55 56 57 59 63 65 66 67 67 67 67 66 66 66 66 67 68
28 29 30 30 30 29 29 29 30 32 32 32 32 32 32 32 33 34 34 33 34 35 37 40 42 43 44 45 46 46 46 46 46 46 45 44 45 45 44 44 46 48 50 51 51 51 50 51 52 53 53 54 55 56 57 59 60 61 61 62 64 66 67 67 68 69 70 70 69 69 69 69 69 70
27 27 28 28 28 29 29 29 30 31 32 32 32 33 33 34 35 36 36 36 37 38 40 42 44 46 47 47 48 48 49 49 49 49 49 48 49 50 50 51 53 55 56 56 57 57 58 58 59 60 60 61 61 62 63 63 63 63 63 63 65 66 67 68 70 71 71 70 69 68 69 71 72 73
27 27 26 26 26 27 28 29 30 31 32 32 33 34 35 35 36 37 38 39 40 41 43 44 45 47 48 49 50 50 50 50 51 51 52 53 54 55 57 58 59 59 59 58 59 60 61 62 63 64 64 64 64 63 64 65 66 66 67 67 68 69 70 71 71 70 70 69 69 70 71 72 73 73
28 27 27 27 27 28 29 30 31 32 33 34 35 36 37 38 39 39 40 41 42 43 44 45 46 47 48 49 50 51 51 52 52 54 55 57 58 60 61 62 62 63 63 64 64 65 65 66 67 68 68 68 67 66 66 67 68 70 70 71 71 71 69 69 68 69 70 71 72 73 73 73 73 71
30 30 30 30 30 30 31 31 32 34 34 36 37 38 39 40 41 42 42 43 44 45 46 47 48 49 50 51 52 53 53 54 56 57 58 59 61 62 63 64 65 66 67 68 68 69 70 70 71 72 72 72 72 72 71 71 72 72 72 72 71 70 68 68 68 70 70 71 72 72 71 71 70 68
33 33 33 33 33 34 34 35 36 36 37 38 39 40 41 42 43 44 44 45 46 47 48 49 50 51 52 53 54 55 56 57 58 59 61 62 63 64 65 66 67 68 69 70 70 71 71 71 71 72 73 73 73 73 73 73 74 74 74 74 74 73 73 72 72 72 71 71 71 71 70 70 71 71
34 34 34 34 35 36 37 37 38 39 40 41 42 42 43 43 44 44 45 46 47 48 49 50 51 52 53 54 56 57 58 60 61 62 63 64 65 66 67 68 68 68 69 69 69 69 69 69 69 70 70 71 71 71 71 71 71 71 72 72 72 72 72 71 72 72 73 73 73 74 74 74 74 74
35 35 36 36 37 38 39 40 40 41 41 42 42 42 43 43 44 45 46 47 48 49 50 52 53 54 55 57 58 60 61 62 63 64 65 66 66 67 67 67 67 67 67 67 67 67 66 66 66 67 67 67 67 67 67 67 67 67 68 68 68 68 67 67 67 68 69 70 71 72 72 72 71 71
36 37 37 38 39 40 40 40 40 40 40 41 41 42 43 44 45 47 48 49 51 52 53 55 56 57 58 59 60 61 62 63 64 65 66 66 66 66 66 66 66 65 65 65 65 65 65 65 65 65 65 64 64 63 63 64 64 65 65 65 64 64 64 64 65 65 65 65 65 66 66 66 66 65
37 38 38 39 39 39 39 39 39 40 41 42 43 44 45 46 48 49 50 52 53 55 56 57 58 59 60 61 62 62 63 64 64 65 65 65 65 64 64 64 64 63 63 63 63 64 64 64 64 64 63 62 61 61 60 61 62 62 62 61 61 61 61 61 60 60 59 59 59 59 60 59 59 58
37 37 37 37 37 38 38 39 40 41 42 43 44 46 47 48 50 51 52 54 55 56 58 60 62 63 64 65 65 65 65 65 65 64 64 64 63 63 62 62 61 61 61 61 61 61 61 61 62 62 61 61 61 60 60 60 60 60 59 59 58 58 58 56 55 54 54 54 53 52 50 49 48 47
36 36 37 37 38 39 39 40 41 42 44 45 46 48 49 51 52 53 54 55 57 59 61 62 64 65 65 66 66 66 65 65 64 64 63 62 62 60 59 59 58 58 58 58 58 58 59 59 60 60 60 61 61 61 60 60 59 59 57 55 54 53 53 52 51 50 47 44 42 39 38 37 37 37
37 37 38 38 39 39 40 41 43 44 45 47 49 50 52 53 54 55 56 58 59 61 62 62 63 63 64 64 63 63 62 61 61 60 59 58 57 56 56 56 56 56 56 56 57 57 58 58 59 60 61 61 61 61 60 57 55 55 53 51 50 50 49 47 44 41 37 35 34 33 34 36 38 39
37 37 38 39 40 40 42 43 44 46 48 50 52 53 55 56 56 57 59 60 61 62 62 62 62 62 61 60 59 58 57 56 55 54 53 52 52 52 52 53 54 54 55 55 56 56 57 57 58 58 58 58 57 56 54 51 49 49 48 46 44 41 38 36 35 34 33 33 33 35 38 40 41 40
36 37 38 39 41 42 44 46 47 49 51 53 54 55 56 57 58 59 59 60 60 60 60 60 59 58 57 55 54 52 51 50 50 49 49 49 49 50 50 51 51 52 52 52 53 52 52 52 52 52 51 50 47 44 42 40 40 41 40 37 35 33 31 31 32 34 35 35 36 38 39 39 37 35
37 38 40 41 43 45 47 49 50 52 53 53 54 54 55 56 56 56 56 56 56 55 54 53 53 52 51 51 50 49 49 48 48 48 48 47 48 48 48 49 49 48 48 46 45 43 42 42 41 40 39 38 35 32 30 30 31 32 32 32 32 32 33 34 35 35 34 34 35 35 35 33 32 31
39 41 43 44 46 47 48 49 50 50 50 51 51 52 52 52 52 52 51 51 50 49 49 49 49 49 49 49 48 48 48 47 47 46 46 45 45 45 45 45 43 42 39 36 33 30 29 28 27 27 27 27 27 28 29 30 30 30 31 32 34 35 36 38 38 36 34 33 32 32 32 31 31 31
42 43 44 45 45 45 46 46 47 47 48 48 48 49 49 48 48 48 47 47 47 47 47 47 47 47 48 47 47 46 45 45 44 43 42 42 42 41 39 38 35 32 29 26 23 22 21 21 21 22 23 23 24 27 29 31 31 32 32 33 35 36 37 37 36 34 33 31 31 31 31 31 31 29
41 41 42 42 42 43 43 44 45 45 46 46 46 45 45 45 45 45 45 45 45 46 46 46 46 46 45 45 44 42 41 40 39 39 39 39 37 35 32 31 29 27 25 23 21 20 20 20 21 22 23 23 23 24 25 26 28 28 29 30 31 32 33 33 33 32 31 31 30 30 30 30 29 27
40 40 40 41 41 41 42 42 43 43 43 42 42 41 42 42 42 43 43 44 44 44 44 44 43 43 42 40 38 37 36 36 37 37 36 34 31 29 27 26 26 26 25 24 23 22 22 23 24 26 27 27 26 26 26 27 28 29 30 31 31 31 31 31 31 31 30 30 30 29 28 27 25 24
39 39 39 39 39 39 39 39 39 39 38 38 39 39 40 41 41 42 42 42 42 42 41 40 39 37 35 33 32 32 33 34 35 34 32 30 28 26 26 25 26 26 26 26 26 26 27 27 27 28 29 29 29 29 29 29 30 30 30 31 30 30 29 28 28 28 28 28 28 27 26 24 23 24
37 37 37 36 36 36 36 36 36 36 36 37 38 38 39 40 40 40 40 40 39 38 36 34 32 30 29 29 30 31 32 33 33 31 29 28 26 26 25 26 26 27 27 27 28 28 28 28 29 29 29 29 29 29 29 29 29 29 29 29 29 28 27 26 26 26 25 25 25 25 23 23 24 25
35 34 34 33 33 33 33 33 34 34 35 36 37 37 38 38 38 38 37 36 35 33 31 28 26 26 27 28 29 30 30 30 29 28 27 26 26 25 25 25 26 27 28 28 28 28 28 29 29 29 29 29 29 29 30 30 29 29 29 28 27 27 26 26 25 25 24 23 23 23 23 23 24 25
Wind_Direction
237 238 241 244 245 249 253 256 260 261 261 260 258 258 257 255 252 252 252 252 254 255 256 257 257 257 257 257 257 258 258 258 258 256 255 254 253 251 250 250 249 248 247 246 247 246 244 244 244 245 245 245 247 248 249 251 252 252 253 254 254 254 253 252 252 253 255 258 258 258 259 261 265 269
237 241 244 248 249 251 255 258 261 261 260 261 262 262 261 259 257 255 254 255 258 259 260 260 260 260 261 261 261 260 260 260 259 259 257 256 254 253 251 251 250 248 247 245 244 244 242 243 244 244 245 246 246 246 247 248 248 249 249 249 250 250 250 250 250 250 251 251 250 251 255 260 265 266
242 245 248 251 254 255 256 257 259 260 262 264 266 266 264 263 260 257 257 259 263 265 265 264 265 264 264 263 262 261 261 261 261 260 259 257 255 254 252 251 251 250 248 246 246 244 243 243 244 245 247 248 248 247 246 246 247 247 247 247 247 248 248 249 249 249 248 248 249 253 259 263 265 265
246 249 251 254 257 258 257 256 257 259 262 266 268 267 266 265 262 259 260 263 267 267 265 265 265 265 264 264 262 262 262 262 261 261 260 258 256 254 253 252 252 251 249 248 248 247 246 246 246 247 248 249 250 249 248 248 247 248 249 249 249 249 249 249 250 250 251 252 255 260 264 268 268 267
246 249 251 253 255 256 257 257 258 261 264 267 267 266 265 263 262 261 262 265 267 267 264 264 264 263 263 263 262 262 263 263 263 261 260 258 256 255 255 254 254 252 251 250 250 250 249 249 249 250 251 252 252 252 251 250 250 250 250 251 251 251 251 252 252 254 256 258 261 265 268 270 270 270
246 249 251 253 254 255 257 259 261 264 265 265 262 260 260 259 260 261 261 263 266 267 266 265 263 261 262 262 263 263 264 265 264 263 261 259 257 256 256 256 257 256 256 256 256 256 256 255 254 253 253 254 254 255 254 253 252 252 252 252 253 254 254 255 256 258 260 263 266 269 271 272 272 272
249 252 254 255 255 255 256 257 260 262 262 262 260 258 257 256 256 256 256 258 262 266 268 268 267 265 264 266 267 266 267 268 267 266 265 263 261 261 260 259 259 259 260 261 261 261 260 260 258 257 256 256 256 256 256 256 256 256 255 256 256 257 258 259 261 263 265 268 270 273 275 275 275 274
252 254 256 256 255 255 255 255 258 262 263 263 263 261 257 251 249 251 253 255 258 264 269 273 275 276 275 274 276 273 271 271 270 268 266 266 265 265 264 263 262 262 262 263 263 262 262 261 260 259 259 259 258 258 258 259 259 259 259 259 260 260 262 264 266 268 270 272 274 276 277 277 277 276
254 256 257 257 256 256 255 255 258 261 264 265 267 267 265 260 255 255 256 256 256 260 265 270 276 280 279 276 276 275 272 272 272 270 268 267 267 267 267 266 266 266 266 265 265 265 265 264 263 263 262 262 262 261 261 262 263 263 263 263 263 264 265 267 269 271 273 275 277 279 280 280 279 279
254 257 259 260 261 260 259 259 262 266 269 271 272 272 272 270 265 260 258 258 260 262 264 267 269 274 278 276 275 276 276 274 274 273 272 273 272 270 268 268 268 268 267 268 269 270 270 269 268 267 266 266 266 266 266 266 266 266 265 266 266 267 268 270 272 275 277 279 280 282 282 283 283 283
255 259 261 263 264 262 261 261 264 268 273 276 277 277 276 273 269 266 265 267 267 268 267 266 266 268 274 279 280 280 279 277 275 274 275 276 274 270 268 269 269 269 269 270 272 273 273 272 271 271 272 273 273 272 271 270 269 268 268 268 270 271 273 276 277 279 281 282 283 283 284 284 285 285
255 258 259 260 258 255 255 254 258 265 270 273 272 271 271 271 271 273 275 276 277 276 274 272 272 271 271 276 281 282 281 279 278 277 276 273 271 271 271 273 273 273 272 273 273 274 273 272 272 273 275 276 275 275 274 273 271 271 271 272 274 275 276 278 279 281 282 282 283 284 284 284 284 284
256 256 256 256 255 254 254 255 260 267 272 275 274 271 269 266 264 266 271 275 278 279 279 279 279 278 275 276 277 276 276 278 280 281 278 275 273 274 274 275 276 276 276 275 275 274 275 275 274 274 275 276 276 276 275 274 273 273 274 274 274 276 277 278 280 281 282 283 283 283 284 284 284 284
255 254 254 255 256 257 259 262 265 268 272 275 276 276 275 270 266 266 267 271 275 276 277 280 282 282 282 280 275 272 271 273 276 278 278 279 280 280 278 276 277 278 278 278 277 274 274 276 274 274 274 274 274 274 273 273 273 274 274 274 275 277 278 278 280 280 280 281 282 283 284 284 284 284
256 256 256 257 259 260 261 262 264 267 271 272 271 270 271 271 272 271 269 269 271 272 273 274 276 278 280 278 275 273 271 272 275 276 276 278 281 282 282 280 278 277 277 279 279 277 275 276 275 274 274 273 273 273 273 274 275 274 274 274 276 278 278 279 280 280 280 281 282 284 284 284 284 284
254 259 261 262 263 263 263 263 264 268 272 273 271 268 266 266 268 269 270 270 270 272 273 273 274 275 276 275 276 276 276 276 277 277 276 275 277 279 281 280 278 276 277 279 280 277 276 276 277 277 277 278 277 276 276 276 276 276 275 275 277 278 279 280 281 281 282 282 283 283 284 284 285 285
255 257 259 259 259 259 260 264 267 269 271 272 272 269 266 265 266 266 268 269 269 270 271 273 277 280 280 279 279 281 282 281 281 280 278 276 275 276 278 278 276 275 277 279 279 277 275 274 276 277 278 279 279 279 278 277 276 277 277 277 278 279 280 281 281 283 283 283 284 284 285 285 286 286
250 250 255 257 255 255 259 263 265 266 266 267 268 267 266 268 269 268 265 266 267 268 268 273 278 283 284 283 282 284 286 284 283 283 283 281 280 280 279 278 276 276 277 279 279 278 274 272 273 274 274 274 275 275 276 275 275 277 278 277 278 278 279 279 278 280 281 282 283 284 285 287 287 285
252 256 260 261 259 258 259 261 264 265 265 264 263 262 263 266 268 266 265 267 268 269 272 276 279 282 285 283 282 286 288 287 284 284 285 285 285 284 282 280 278 279 280 282 283 282 278 275 275 275 274 276 277 276 275 275 275 276 277 276 275 275 276 276 275 276 277 278 279 281 284 285 283 278
263 266 265 267 268 267 264 263 265 266 267 267 266 264 263 264 265 265 267 269 271 272 274 276 278 282 283 281 282 287 290 287 285 285 286 285 285 285 284 282 281 281 282 283 284 283 281 280 279 278 278 278 277 275 275 276 277 278 277 276 275 274 274 274 273 273 273 274 275 278 281 282 279 275
261 264 267 271 273 271 270 268 268 268 268 268 267 266 265 265 267 270 272 273 275 276 277 278 279 280 280 281 285 289 290 288 287 286 285 285 285 285 284 284 285 284 284 283 282 281 280 279 278 277 276 274 273 272 273 274 274 275 274 272 272 272 272 272 271 271 272 273 274 277 279 280 280 279
257 259 264 268 267 266 266 266 263 263 266 266 265 265 267 269 271 274 276 277 277 276 276 276 277 277 279 282 286 288 288 288 287 285 284 284 283 281 280 281 283 283 282 280 279 279 278 276 275 274 273 272 271 271 272 271 270 270 271 271 271 271 271 271 272 273 273 274 276 278 281 282 282 282
258 257 258 259 258 257 258 257 254 256 262 267 267 268 271 273 274 276 277 277 275 273 271 272 274 277 280 283 285 285 285 285 284 282 281 280 278 277 276 276 276 277 278 277 277 277 276 275 274 274 274 273 273 274 274 273 271 270 270 271 271 270 270 271 272 273 275 277 280 282 283 283 283 283
259 258 258 258 259 259 259 259 259 261 266 270 272 273 275 277 278 279 279 278 277 275 274 275 277 279 281 282 283 283 283 283 283 283 282 280 279 278 277 276 277 278 279 279 279 279 279 278 277 276 276 275 275 275 275 273 271 269 269 269 270 271 272 274 275 277 279 280 281 281 281 281 281 281
262 260 260 260 261 262 263 263 264 267 269 272 273 275 276 277 278 279 279 279 278 278 277 278 279 280 281 282 283 283 283 283 283 283 282 281 280 279 279 279 280 281 281 282 281 280 279 278 277 276 275 275 275 274 273 272 271 270 270 270 272 273 275 277 278 279 280 280 280 279 280 281 281 281
266 265 264 264 264 264 264 265 266 268 270 272 274 276 276 277 278 278 278 278 278 278 279 279 280 281 282 283 283 283 282 282 282 282 281 281 281 281 281 281 281 280 280 280 279 278 277 276 274 274 273 274 274 273 273 272 272 272 272 273 274 276 277 278 279 279 280 280 281 281 281 281 280 280
267 268 269 270 270 270 270 270 270 271 273 274 275 276 277 278 278 278 279 280 280 281 281 282 282 283 284 284 284 284 284 283 283 283 283 282 282 282 282 281 281 280 279 279 278 277 276 276 275 274 274 273 273 272 272 272 272 273 274 274 275 276 277 278 278 278 279 279 278 278 278 278 278 278
267 268 269 270 271 271 272 272 273 273 274 275 276 277 277 278 279 280 281 282 282 283 283 284 284 285 285 286 286 286 285 285 284 284 283 283 283 282 282 282 281 281 280 279 279 278 277 277 276 276 275 275 275 274 274 273 273 274 274 274 274 275 275 275 275 275 276 276 276 276 276 277 277 278
267 268 270 272 273 274 274 274 275 276 276 277 278 279 279 280 281 282 282 283 283 284 284 285 286 286 286 286 286 286 286 285 285 284 284 283 283 283 282 282 282 281 281 281 280 280 279 279 278 277 277 277 277 277 277 276 276 275 275 275 275 275 275 275 274 274 274 275 276 277 278 278 279 279
268 269 270 272 273 274 275 276 276 277 277 278 279 280 281 282 283 283 284 284 285 285 286 287 287 287 287 287 287 287 286 286 285 285 284 283 283 282 282 282 282 282 282 282 281 281 281 280 280 279 279 279 279 279 279 279 278 277 276 276 276 276 275 275 275 275 275 275 276 277 278 279 279 279
267 268 270 271 272 273 274 274 275 277 279 280 282 283 284 284 285 286 287 288 288 288 288 288 288 289 288 288 287 287 287 287 287 286 286 285 285 284 284 283 283 282 282 282 282 281 281 281 280 280 280 280 279 279 278 278 278 278 278 278 278 278 277 277 277 277 277 277 278 278 279 279 280 280
268 269 270 270 271 273 274 276 278 280 282 283 284 285 286 287 288 289 289 289 289 289 289 289 290 290 290 290 290 290 290 290 289 289 289 288 288 287 286 285 284 284 283 282 282 281 281 280 280 279 279 279 279 278 278 277 278 278 278 279 279 279 280 280 280 280 281 281 281 282 282 283 282 282
268 270 271 273 275 277 279 281 282 283 284 285 286 287 288 288 289 289 290 290 290 291 292 292 293 292 292 292 291 291 291 291 290 290 290 289 289 288 287 286 285 285 284 283 282 281 280 280 279 279 279 278 278 278 278 278 278 278 279 279 280 280 281 282 282 283 284 284 285 285 285 285 284 284
272 274 276 278 280 281 282 283 284 285 286 287 288 288 289 289 290 291 292 293 294 295 295 294 294 293 292 292 292 291 291 291 291 291 291 290 290 289 288 287 286 285 285 283 282 281 280 279 279 278 278 277 277 277 277 277 278 278 279 279 279 280 281 283 284 284 284 285 286 287 289 290 290 290
277 279 280 281 282 283 284 286 287 288 289 289 290 291 292 293 294 295 295 295 294 294 293 293 293 292 292 292 292 292 292 291 291 291 290 290 289 289 288 287 286 286 285 283 282 281 280 279 279 278 277 277 277 276 277 278 278 278 278 278 278 279 282 283 283 281 281 285 288 290 291 293 292 291
278 280 281 282 284 285 287 288 289 290 290 291 292 292 293 293 293 292 292 291 290 290 290 290 290 290 291 291 291 291 290 290 290 289 289 289 288 288 288 287 287 287 286 286 285 284 283 282 280 278 278 277 278 278 280 279 277 277 280 281 279 280 280 280 278 279 281 285 286 287 288 290 290 290
279 280 282 284 286 288 289 290 290 290 290 290 290 290 289 289 288 288 288 288 287 288 288 288 289 290 290 290 291 290 290 290 290 290 289 289 289 289 290 290 290 290 290 290 289 288 286 284 281 280 280 280 281 283 284 282 278 278 280 280 277 275 274 275 279 282 283 284 284 285 287 288 289 289
280 282 284 286 287 287 287 287 287 286 286 286 286 286 286 286 286 286 286 286 287 288 289 290 291 292 292 293 293 292 292 292 292 292 292 292 292 293 293 294 294 294 295 294 293 291 289 287 286 285 284 282 280 280 282 280 278 277 277 276 274 272 272 277 283 286 286 286 286 286 287 288 289 291
280 281 282 282 283 282 282 282 282 282 283 284 284 285 285 286 286 287 288 289 291 292 293 294 294 294 294 294 294 293 293 293 293 294 294 295 296 297 298 298 299 299 300 299 298 298 298 297 297 296 293 285 277 274 275 277 277 276 275 275 276 276 278 281 286 287 287 287 286 286 288 291 292 294
277 277 278 278 278 279 279 280 281 283 284 285 286 287 287 289 290 291 293 294 295 295 296 295 295 295 294 294 294 294 294 294 295 296 297 299 300 301 302 302 302 303 303 302 302 305 308 308 307 306 303 296 286 280 279 280 279 278 276 275 276 278 279 281 282 283 283 284 285 288 291 293 293 293
276 277 277 278 278 279 280 282 283 285 286 287 288 290 291 292 294 295 296 297 297 297 297 296 296 296 295 295 295 295 296 296 298 299 301 302 303 305 305 303 300 299 299 301 303 305 307 307 307 306 306 304 299 293 289 286 285 284 283 282 282 282 282 281 281 281 282 284 286 289 291 292 291 290
276 277 277 278 279 280 282 283 285 287 288 290 291 292 294 295 296 297 298 298 298 298 297 297 296 296 296 296 296 297 298 300 301 302 302 303 305 307 308 306 301 297 298 300 302 301 300 300 300 301 302 302 302 299 296 293 292 291 290 290 290 290 288 287 286 285 285 285 286 287 287 286 284 283
275 275 276 278 279 281 283 285 287 289 291 292 294 295 296 298 299 300 300 299 299 298 298 298 298 297 297 297 298 300 301 302 302 302 302 303 305 306 306 306 304 301 298 297 295 295 296 296 297 299 299 300 299 298 296 294 294 293 292 291 291 291 292 291 290 288 286 284 283 283 281 278 276 276
274 275 277 279 281 283 285 287 289 291 292 295 297 298 300 301 301 301 300 299 299 299 299 299 299 300 301 302 304 304 304 304 303 303 303 303 304 303 302 302 303 302 299 296 293 293 295 297 299 299 299 298 297 295 293 292 292 292 291 290 289 288 289 290 289 288 286 283 281 279 276 273 273 275
274 276 278 280 282 284 286 288 290 293 296 298 300 301 302 303 302 302 301 300 300 300 301 302 304 306 307 308 307 307 306 305 303 302 301 301 302 302 302 302 303 303 301 299 297 297 297 297 298 297 297 296 294 293 291 290 289 288 288 288 287 286 286 286 286 285 284 282 279 277 274 273 274 276